Starlink 32842

operational
NORAD ID: 62822 Int'l Des: 2025-018 Owner: SPXS Country: US Constellation: starlink
LEOCIRCULAR

About Starlink 32842

Description loading...

Live Position

Loading 3D Globe...

Upcoming Passes

Altitude History

Altitude vs Time

uPlot chart will show altitude changes over time

Two-Line Element Set

1 62822U 25018S 25303.02450851 -.00002033 00000-0 -56574-4 0 9995
2 62822 53.1589 196.4763 0001527 75.2020 284.9150 15.30178974 43179
Epoch: Oct 30, 2025 • Age: 21 hours

Current Status

Altitude 476.4 km
Velocity 7.63 km/s
Sub-Earth Point 28.83°N, 15.09°W
Launch Date Jan 24, 2025
Age 0.7 years
Type internet

Technical Details

Classification Payload
Mass 730.00 kg
Dry Mass 700.00 kg
Total Mass 730.00 kg
Length 0.30 m
Diameter 4.10 m
Span 29.00 m
Shape Box + pan
Manufacturer SPXS
Bus Type Starlink V2M
Phase Status In Orbit
Owner/State SPXS/US

Large Constellations

Loading constellations...